Location: Unspecified
(0.0000°N, 0.0000°E)
Time: 19:52:39
(UTC+00:00)

ISS - Pass Details

Date: 16 June 2019
Orbit: 407 x 419 km, 51.6° (Epoch: 26 June)

Event Time Altitude Azimuth Distance (km) Brightness Sun altitude
Rises 19:30:27 0° 288° (WNW) 2,342 1.6 -20.5°
Reaches altitude 10° 19:33:56 10° 249° (WSW) 1,486 -0.4 -21.3°
Maximum altitude 19:34:51 11° 234° (SW) 1,437 -0.7 -21.5°
Drops below altitude 10° 19:35:46 10° 218° (SW) 1,489 -0.8 -21.7°
Enters shadow 19:36:16 - 210° (SSW) 1,558 -0.8 -21.8°
